Regional Weather Roundup
Issued by NWS Wakefield, VA

Home | Current Version | Previous Version | Graphics & Text | Print | Product List | Glossary On
Versions: 1 2 3 4 5 6 7 8 9 10 11 12 13 14 15 16 17 18 19 20 21 22 23 24 25 26 27 28 29 30 31 32 33 34 35 36 37 38 39 40 41 42 43 44 45 46 47 48 49 50
998
ASUS41 KAKQ 251114
RWRAKQ

REGIONAL WEATHER ROUNDUP
NATIONAL WEATHER SERVICE WAKEFIELD VA
600 AM EST SAT FEB 25 2017

Note: "fair" indicates few or no clouds below 12,000 feet with no
significant weather and/or obstructions to visibility. * = Denotes
station may not report precipitation (e.g., rain,snow,etc.),
thunder or fog.

VAZ042-051-052>054-056-251200-
NORTHERN VIRGINIA

CITY           SKY/WX    TMP DP  RH WIND       PRES   REMARKS
WASH NATIONAL  MOCLDY    58  56  93 S10       29.72F
DULLES         MOCLDY    59  56  89 SE15      29.67F
FORT BELVOIR   PTCLDY    55  54  94 SE5       29.70F
QUANTICO       PTCLDY    56  56 100 SW8       29.72F
FREDERICKSBRG* CLEAR     58  58 100 S9        29.71F
STAFFORD*      CLEAR     57  57 100 S6        29.75F
WARRENTON      PTCLDY    59  55  85 SE7       29.69F
CULPEPER*      CLEAR     56  56  99 SE5       29.70F
MANASSAS*        N/A     59  56  89 S13       29.69F
LEESBURG*      MOCLDY    61  59  94 MISG      29.68F
WINCHESTER     PTCLDY    57  52  82 S7        29.64F
FRONT ROYAL*   CLOUDY    63  52  67 SW8       29.64F
LURAY*         MOSUNNY   61  54  77 SW7       29.65F
$$

VAZ048-049-060>072-079>083-251200-
CENTRAL AND SOUTH CENTRAL VIRGINIA

CITY           SKY/WX    TMP DP  RH WIND       PRES   REMARKS
RICHMOND       CLEAR     58  57  97 S8        29.74F
CHESTERFIELD*  FAIR      55  43  62 S8        29.76F
PETERSBURG*    MOCLDY    55  54  97 S3        29.76F
HANOVER        CLEAR     59  55  87 SE6       29.75F
TAPPAHANNOCK*  CLEAR     59  59 100 S6        29.76S
QUINTON*       FAIR      56  56 100 SE7       29.75F
CHARLOTTSVILLE MOCLDY    61  56  83 S9        29.68F
GORDONSVILLE*  SUNNY     58  57  95 SW5       29.70F
ORANGE*        CLEAR     57  55  94 CALM      29.71F
LOUISA*        PTCLDY    63  61  94 S6        29.71S
BUMPASS*       NOT AVBL
FARMVILLE*     PTCLDY    57  57  99 CALM      29.72S
CREWE*         NOT AVBL
FORT PICKETT*  NOT AVBL
CHASE CITY*    NOT AVBL
CLARKSVILLE*   NOT AVBL
SOUTH HILL*    CLEAR     56  56 100 S7        29.82S
LAWRENCEVILLE* FAIR      53  52  97 SE3       29.76S VSB 1/2
EMPORIA*       FOG       48  48 100 CALM      29.79S VSB 1/2
$$

VAZ088>098-251200-
SOUTHEAST VIRGINIA

CITY           SKY/WX    TMP DP  RH WIND       PRES   REMARKS
NORFOLK        PTCLDY    53  52  96 S3        29.78R FOG
VIRGINIA BEACH CLEAR     49  47  93 CALM      29.77F FOG
NORFOLK NAVAL  PTCLDY    55  53  93 S3        29.79S
WEST POINT*    PTCLDY    57  57  97 SE3       29.78S
SALUDA*        NOT AVBL
NEWPORT NEWS   FOG       51  50  96 CALM      29.78S VSB 1/4
LANGLEY AFB    CLEAR     52  52 100 CALM      29.77S FOG
FORT EUSTIS    CLEAR     54  50  87 SE3       29.75S FOG
WILLIAMSBURG*  PTCLDY    55  55 100 CALM      29.78S
HR EXEC AP*    NOT AVBL
FRANKLIN*      FOG       47  47  98 CALM      29.79R VSB 3/4
US460-WAKEFLD  MOCLDY    52  52 100 CALM      29.77S
$$

VAZ020-022-025-037-045-251200-
WEST CENTRAL AND SOUTHWEST VIRGINIA

CITY           SKY/WX    TMP DP  RH WIND       PRES   REMARKS
STAUNTON*      PTCLDY    59  52  77 S7        29.68F
WAYNESBORO*    NOT AVBL
HOT SPRINGS VA PTCLDY    52  50  93 S14G22    29.71F
LYNCHBURG      MOCLDY    58  54  86 S10       29.72F
DANVILLE       CLOUDY    58  56  93 CALM      29.74R
SOUTH BOSTON*  NOT AVBL
MARTINSVILLE   MOCLDY    58  53  85 CALM      29.76S
ROANOKE        CLOUDY    60  53  77 SE12      29.69F
BLACKSBURG     CLOUDY    58  52  78 CALM      29.71F
DUBLIN*        CLOUDY    62  52  71 S8        29.70S
MARION*        CLOUDY    62  51  67 CALM      29.70S
HILLSVILLE*    PTCLDY    57  52  83 S8G18     29.69F
RICHLANDS*     TSTM      53  50  88 SW12G25   29.70R
WISE*          LGT RAIN  54  54 100 SW15G22   29.69S
ABINGDON*      LGT RAIN  57  53  87 W9        29.70R
$$

MDZ021>025-VAZ099-100-251200-
SOUTHERN MARYLAND AND THE DELMARVA PENINSULA

CITY           SKY/WX    TMP DP  RH WIND       PRES   REMARKS
PATUXENT RIVER PTCLDY    52  52 100 SE5       29.75F
BAY BRIDGE APT PTCLDY    57  55  94 S10       29.73F
LEONARDTOWN    PTCLDY    55  54  94 S3        29.76S
DOVER          MOCLDY    55  55 100 SE7       29.75F
GEORGETOWN     CLOUDY    54  53  97 S6        29.77F
EASTON         CLOUDY    60  56  87 S10       29.78F
CAMBRIDGE        N/A     55  55 100 S6G14     29.76F
SALISBURY      CLOUDY    48  48 100 CALM      29.77F FOG
OCEAN CITY     CLOUDY    48  47  96 CALM      29.79S FOG
WALLOPS ISLAND PTCLDY    50  50 100 S3        29.78F FOG
ACCOMACK*      CLEAR     55  54  97 S6        29.78S
$$

NCZ012>017-030>032-251200-
NORTH CENTRAL AND EASTERN NORTH CAROLINA

CITY           SKY/WX    TMP DP  RH WIND       PRES   REMARKS
ROANOKE RAPIDS FOG       50  50 100 CALM      29.78S VSB 1/4
RALEIGH        PTCLDY    60  58  92 S7        29.77S
ELIZABETH CITY FOG       49  49 100 CALM      29.78S VSB 1/2
AHOSKIE*       FOG       47  47  99 CALM      29.79S VSB 1/4
EDENTON*       FOG       51  51 100 CALM      29.79S VSB 1/2
CURRITUCK*     MOCLDY    51  51 100 CALM      29.79S FOG
KILL DEVIL HLS NOT AVBL
MANTEO         PTCLDY    51  51 100 CALM      29.78F FOG
CAPE HATTERAS  CLEAR     60  57  89 N5        29.77F FOG
TARBORO*       NOT AVBL
GOLDSBORO      FOG       52  52 100 CALM      29.77S VSB 3/4
WASHINGTON     CLOUDY    48  48  98 CALM      29.78S FOG
GREENVILLE     FOG       48  48 100 CALM      29.81R VSB 1/4
NEW BERN       FOG       49  49 100 CALM      29.79S VSB 1/2
WILMINGTON     PTCLDY    50  50 100 CALM      29.79R FOG
$$

VAZ048-251200-
ELSEWHERE

CITY           SKY/WX    TMP DP  RH WIND       PRES   REMARKS
HARRISBURG PA  MOCLDY    60  57  89 S9G18     29.66F
BALTIMORE      MOCLDY    51  51 100 SE6       29.71F FOG
ANNAPOLIS      PTCLDY    54  53  97 S7        29.72F
ANDREWS AFB    PTCLDY    59  56  91 S14       29.71F
PHILADELPHIA   MOCLDY    57  55  93 S3        29.77S
HENDERSON NC   PTCLDY    55  53  96 S6        29.76F
GREENSBORO     MOCLDY    58  55  90 SW9       29.74S
ROCKY MOUNT    PTCLDY    50  50 100 CALM      29.79R
$$

VAZ100-251200-
MARINE

STATION/POSITION TIME  TEMP    WIND        PRES    WAVE   SWELL
                       AIR SEA DIR/SP/G            HT/PER HT/PER
                 (UTC) (F)     (DEG/KT/KT) (MB)    (FT/S) (FT/S)
CAPE MAY NJ      1048   51 46  130/  7/ 10 1007.9F
LEWES DE         1048   55 44  170/  6/  8 1008.1F
OCEAN-CITY-INLET 1048   47 45  180/  2/  3 1009.1F
WACHAPREAGUE VA  1048   53 54  160/  2/  3 1008.4F
THOMAS POINT MD  1100   50 45  160/  9/  9   N/A
GOOSES REEF MD   1100   49 44  160/ 14/ 16 1007.5    1/ 2
COVE POINT MD    1048   49     190/ 11/ 12 1007.9F
SOLOMONS ISLAND  1048   53 45   90/  7/  8   N/A
BISHOPS HEAD MD  1048   50 52  150/  8/  9 1008.0F
PINEY POINT MD   1048          130/  7/  7   N/A
POTOMAC MD       1100   49 46  170/  6/  6 1006.7    0
CAMBRIDGE MD     1048   56 45  170/  5/  8 1006.8F
LEWISETTA VA     1048   59 51  210/ 10/ 12 1007.2F
RAPPAHANNOCK LGT 1048          150/  7/  7 1008.8F
YORK RVR RNG VA  1048   53     180/  6/  8 1007.5F
YORKTOWN VA      1048   52 49  100/  3/  3 1007.8F
JAMESTOWN VA     1100   57 53  110/  4/  6   N/A     0
DOMINION TERM VA 1048   57     160/  2/  2 1008.4S
KIPTOPEKE VA     1048      49  150/  5/  6   N/A
CHES BAY BRIDGE  1048   56 47  200/  3/  3 1008.3F
CAPE HENRY VA    1048   58     170/  5/  5   N/A
WILLOUBY STN VA  1048   55     270/  1/  2 1009.2F
S CRANEY ISL VA  1048   56     200/  3/  3 1008.1F
CAPE HENRY BUOY  1042      50                N/A     5/ 9   2/11
OFFSHORE WE BUOY 1051      51                N/A     5/11   3/11
64NM E OF VA BCH 1050   55 54  350/  4/  6 1008.3F   7/11   7/11
DUCK PIER NC     1048   54 49  100/  3/  4 1007.7F
44100 DUCK FRF   1035      52                N/A     7/11   3/11
44056 DUCK FRF   1030      50                N/A     5/11   3/11
OREGON INLET NC  1048           30/  3/  5   N/A
HATTERAS NC      1048   62 63  360/  3/  4 1007.9S
DIAMOND SHLS NC  1050   70 76  210/  4/  6 1007.9F   8/11   8/11
CAPE LOOKOUT NC  1000   62      30/  1/  2 1007.9F
$$




USA.gov is the U.S. government's official web portal to all federal, state and local government web resources and services.